| time (UTC) | temp C | wind direction | speed KPH | gust KPH | rain 1hr cm | rain 24hr cm | rain mn cm | humidity % | barometer mb |
| 20260904231558 | 22 | 0 | 0.0 | 9.7 | 0.00 | 0.00 | 0.00 | 54 | 1014.8 |
| 20260904230108 | 22 | 174 | 0.0 | 11.3 | 0.00 | 0.00 | 0.00 | 54 | 1014.9 |
| 20260904224621 | 22 | 0 | 0.0 | 14.5 | 0.00 | 0.00 | 0.00 | 54 | 1014.9 |
| 20260904223109 | 22 | 0 | 0.0 | 9.7 | 0.00 | 0.00 | 0.00 | 54 | 1014.7 |
| 20260904221602 | 22 | 0 | 0.0 | 6.4 | 0.00 | 0.00 | 0.00 | 54 | 1014.7 |
| 20260904220100 | 22 | 221 | 0.0 | 14.5 | 0.00 | 0.00 | 0.00 | 54 | 1014.6 |
| 20260904214555 | 22 | 0 | 0.0 | 12.9 | 0.00 | 0.00 | 0.00 | 53 | 1014.5 |
| 20260904213101 | 22 | 0 | 0.0 | 6.4 | 0.00 | 0.00 | 0.00 | 53 | 1014.4 |
| 20260904211555 | 22 | 0 | 0.0 | 4.8 | 0.00 | 0.00 | 0.00 | 53 | 1014.3 |
| 20260904210055 | 23 | 0 | 0.0 | 3.2 | 0.00 | 0.00 | 0.00 | 52 | 1014.4 |
| 20260904204549 | 23 | 0 | 0.0 | 4.8 | 0.00 | 0.00 | 0.00 | 52 | 1014.4 |
| 20260904203057 | 23 | 0 | 0.0 | 1.6 | 0.00 | 0.00 | 0.00 | 51 | 1014.4 |
| 20260904201613 | 23 | 0 | 0.0 | 12.9 | 0.00 | 0.00 | 0.00 | 51 | 1014.4 |
| 20260904200108 | 23 | 0 | 0.0 | 6.4 | 0.00 | 0.00 | 0.00 | 50 | 1014.3 |
| 20260904194553 | 23 | 0 | 0.0 | 6.4 | 0.00 | 0.00 | 0.00 | 50 | 1014.3 |
| 20260904193046 | 23 | 0 | 0.0 | 6.4 | 0.00 | 0.00 | 0.00 | 49 | 1014.2 |
| 20260904191552 | 23 | 0 | 0.0 | 4.8 | 0.00 | 0.00 | 0.00 | 49 | 1014.0 |
| 20260904190051 | 24 | 0 | 0.0 | 11.3 | 0.00 | 0.00 | 0.00 | 48 | 1013.6 |
| 20260904184553 | 24 | 0 | 0.0 | 6.4 | 0.00 | 0.00 | 0.00 | 47 | 1013.4 |
| 20260904183046 | 25 | 0 | 0.0 | 6.4 | 0.00 | 0.00 | 0.00 | 46 | 1013.3 |
| 20260904181553 | 25 | 176 | 0.0 | 6.4 | 0.00 | 0.00 | 0.00 | 45 | 1013.2 |
| 20260904180050 | 25 | 0 | 0.0 | 12.9 | 0.00 | 0.00 | 0.00 | 44 | 1013.0 |
| 20260904174551 | 26 | 0 | 0.0 | 14.5 | 0.00 | 0.00 | 0.00 | 43 | 1012.9 |
| 20260904173047 | 26 | 0 | 0.0 | 12.9 | 0.00 | 0.00 | 0.00 | 42 | 1012.8 |
| 20260904171616 | 26 | 191 | 1.6 | 19.3 | 0.00 | 0.00 | 0.00 | 42 | 1012.8 |
| 20260904170051 | 27 | 133 | 1.6 | 0.0 | 0.00 | 0.00 | 0.00 | 42 | 1012.8 |
| 20260904164549 | 27 | 294 | 0.0 | 20.9 | 0.00 | 0.00 | 0.00 | 42 | 1012.9 |
| 20260904163058 | 27 | 293 | 6.4 | 22.5 | 0.00 | 0.00 | 0.00 | 40 | 1012.9 |
| 20260904161559 | 28 | 227 | 8.0 | 20.9 | 0.00 | 0.00 | 0.00 | 40 | 1013.0 |
| 20260904160058 | 28 | 360 | 3.2 | 25.7 | 0.00 | 0.00 | 0.00 | 39 | 1013.0 |
| 20260904154550 | 28 | 183 | 4.8 | 4.8 | 0.00 | 0.00 | 0.00 | 38 | 1013.1 |
| 20260904153108 | 28 | 138 | 3.2 | 8.0 | 0.00 | 0.00 | 0.00 | 37 | 1013.3 |
| 20260904151552 | 29 | 360 | 6.4 | 25.7 | 0.00 | 0.00 | 0.00 | 37 | 1013.4 |
| 20260904150051 | 29 | 360 | 3.2 | 27.4 | 0.00 | 0.00 | 0.00 | 37 | 1013.5 |
| 20260904144605 | 29 | 360 | 6.4 | 19.3 | 0.00 | 0.00 | 0.00 | 36 | 1013.5 |
| 20260904143112 | 29 | 238 | 1.6 | 35.4 | 0.00 | 0.00 | 0.00 | 37 | 1013.6 |
| 20260904141549 | 28 | 254 | 11.3 | 38.6 | 0.00 | 0.00 | 0.00 | 38 | 1013.8 |
| 20260904140054 | 28 | 277 | 19.3 | 20.9 | 0.00 | 0.00 | 0.00 | 38 | 1014.0 |
| 20260904134558 | 28 | 360 | 11.3 | 30.6 | 0.00 | 0.00 | 0.00 | 37 | 1014.0 |
| 20260904133106 | 28 | 321 | 6.4 | 20.9 | 0.00 | 0.00 | 0.00 | 36 | 1014.1 |
| 20260904131602 | 28 | 188 | 3.2 | 16.1 | 0.00 | 0.00 | 0.00 | 38 | 1014.3 |
| 20260904130108 | 28 | 360 | 3.2 | 19.3 | 0.00 | 0.00 | 0.00 | 38 | 1014.5 |
| 20260904124552 | 28 | 271 | 6.4 | 0.0 | 0.00 | 0.00 | 0.00 | 38 | 1014.6 |
| 20260904123053 | 28 | 360 | 1.6 | 19.3 | 0.00 | 0.00 | 0.00 | 38 | 1014.9 |
| 20260904121547 | 27 | 158 | 1.6 | 3.2 | 0.00 | 0.00 | 0.00 | 38 | 1015.1 |
| 20260904120105 | 27 | 271 | 11.3 | 29.0 | 0.00 | 0.00 | 0.00 | 38 | 1015.3 |
| 20260904114554 | 28 | 269 | 3.2 | 22.5 | 0.00 | 0.00 | 0.00 | 40 | 1015.2 |
| 20260904113056 | 27 | 0 | 3.2 | 17.7 | 0.00 | 0.00 | 0.00 | 41 | 1015.6 |
| 20260904111550 | 27 | 360 | 16.1 | 25.7 | 0.00 | 0.00 | 0.00 | 41 | 1015.9 |
| 20260904110057 | 27 | 230 | 9.7 | 20.9 | 0.00 | 0.00 | 0.00 | 41 | 1016.2 |
| 20260904104552 | 26 | 298 | 3.2 | 0.0 | 0.00 | 0.00 | 0.00 | 40 | 1016.4 |
| 20260904103050 | 26 | 254 | 14.5 | 17.7 | 0.00 | 0.00 | 0.00 | 42 | 1016.7 |
| 20260904101557 | 26 | 234 | 3.2 | 19.3 | 0.00 | 0.00 | 0.00 | 43 | 1016.9 |
| 20260904100051 | 25 | 360 | 4.8 | 24.1 | 0.00 | 0.00 | 0.00 | 43 | 1017.1 |
| 20260904094554 | 26 | 360 | 12.9 | 19.3 | 0.00 | 0.00 | 0.00 | 44 | 1017.3 |
| 20260904093049 | 25 | 163 | 1.6 | 19.3 | 0.00 | 0.00 | 0.00 | 46 | 1017.5 |
| 20260904091557 | 24 | 277 | 3.2 | 17.7 | 0.00 | 0.00 | 0.00 | 45 | 1017.7 |
| 20260904090054 | 24 | 0 | 3.2 | 20.9 | 0.00 | 0.00 | 0.00 | 47 | 1017.9 |
| 20260904084559 | 23 | 360 | 1.6 | 20.9 | 0.00 | 0.00 | 0.00 | 49 | 1017.9 |
| 20260904083049 | 23 | 0 | 6.4 | 20.9 | 0.00 | 0.00 | 0.00 | 50 | 1018.2 |
| 20260904081553 | 22 | 138 | 1.6 | 14.5 | 0.00 | 0.00 | 0.00 | 51 | 1018.1 |
| 20260904080118 | 22 | 210 | 1.6 | 14.5 | 0.00 | 0.00 | 0.00 | 54 | 1018.1 |
| 20260904074557 | 21 | 360 | 3.2 | 12.9 | 0.00 | 0.00 | 0.00 | 54 | 1018.2 |
| 20260904073057 | 20 | 196 | 3.2 | 14.5 | 0.00 | 0.00 | 0.00 | 57 | 1018.3 |
| 20260904071552 | 19 | 0 | 0.0 | 16.1 | 0.00 | 0.00 | 0.00 | 59 | 1018.3 |
| 20260904070058 | 18 | 276 | 1.6 | 11.3 | 0.00 | 0.00 | 0.00 | 63 | 1018.4 |
| 20260904064557 | 17 | 0 | 0.0 | 8.0 | 0.00 | 0.00 | 0.00 | 66 | 1018.4 |
| 20260904063112 | 17 | 190 | 0.0 | 4.8 | 0.00 | 0.00 | 0.00 | 66 | 1018.2 |
| 20260904061551 | 16 | 0 | 0.0 | 4.8 | 0.00 | 0.00 | 0.00 | 67 | 1018.2 |
| 20260904060055 | 16 | 0 | 0.0 | 4.8 | 0.00 | 0.00 | 0.00 | 67 | 1018.2 |
| 20260904054553 | 16 | 0 | 0.0 | 0.0 | 0.00 | 0.00 | 0.00 | 66 | 1018.3 |
| 20260904053105 | 16 | 0 | 0.0 | 0.0 | 0.00 | 0.00 | 0.00 | 65 | 1018.3 |
| 20260904051553 | 16 | 0 | 0.0 | 0.0 | 0.00 | 0.00 | 0.00 | 64 | 1018.3 |
| 20260904050056 | 17 | 0 | 0.0 | 0.0 | 0.00 | 0.00 | 0.00 | 64 | 1018.3 |
| 20260904044547 | 17 | 0 | 0.0 | 0.0 | 0.00 | 0.00 | 0.00 | 64 | 1018.3 |
| 20260904043059 | 17 | 0 | 0.0 | 0.0 | 0.00 | 0.00 | 0.00 | 63 | 1018.4 |
| 20260904041553 | 17 | 0 | 0.0 | 0.0 | 0.00 | 0.00 | 0.00 | 63 | 1018.4 |
| 20260904040057 | 17 | 202 | 0.0 | 0.0 | 0.00 | 0.00 | 0.00 | 63 | 1018.6 |
| 20260904034604 | 17 | 0 | 0.0 | 0.0 | 0.00 | 0.00 | 0.00 | 63 | 1018.7 |
| 20260904033059 | 17 | 0 | 0.0 | 0.0 | 0.00 | 0.00 | 0.00 | 62 | 1018.9 |
| 20260904031555 | 17 | 0 | 0.0 | 3.2 | 0.00 | 0.00 | 0.00 | 62 | 1018.7 |
| 20260904030058 | 17 | 0 | 0.0 | 1.6 | 0.00 | 0.00 | 0.00 | 62 | 1018.8 |
| 20260904024552 | 17 | 0 | 0.0 | 0.0 | 0.00 | 0.00 | 0.00 | 62 | 1018.9 |
| 20260904023051 | 17 | 0 | 0.0 | 4.8 | 0.00 | 0.00 | 0.00 | 62 | 1019.1 |
| 20260904021608 | 17 | 0 | 0.0 | 9.7 | 0.00 | 0.00 | 0.00 | 62 | 1019.1 |
| 20260904020056 | 17 | 0 | 0.0 | 3.2 | 0.00 | 0.00 | 0.00 | 62 | 1019.1 |
| 20260904014605 | 17 | 0 | 0.0 | 0.0 | 0.00 | 0.00 | 0.00 | 63 | 1019.2 |
| 20260904013113 | 17 | 0 | 0.0 | 3.2 | 0.00 | 0.00 | 0.00 | 63 | 1019.3 |
| 20260904011632 | 17 | 0 | 0.0 | 1.6 | 0.00 | 0.00 | 0.00 | 64 | 1019.4 |
| 20260904010052 | 16 | 0 | 0.0 | 3.2 | 0.00 | 0.00 | 0.00 | 65 | 1019.5 |
| 20260904004546 | 16 | 198 | 0.0 | 6.4 | 0.00 | 0.00 | 0.00 | 67 | 1019.4 |
| 20260904003050 | 16 | 0 | 0.0 | 6.4 | 0.00 | 0.00 | 0.00 | 69 | 1019.4 |
| 20260904001551 | 16 | 0 | 0.0 | 1.6 | 0.00 | 0.00 | 0.00 | 71 | 1019.5 |
| 20260903234545 | 16 | 0 | 0.0 | 0.0 | 0.00 | 0.00 | 0.00 | 72 | 1019.9 |
| 20260903233053 | 15 | 0 | 0.0 | 0.0 | 0.00 | 0.00 | 0.00 | 72 | 1020.0 |